Daggett, CA

12:44 AM PDT on July 24, 2016 (GMT -0700)
Barstow-Daggett

Weather History for KDAG - July, 2013

Change the Weather History Date:

Monday, July 8, 2013

  Actual Average Record
Temperature  
Mean Temperature 94 °F 88 °F  
Max Temperature 109 °F 104 °F 113 °F (1976)
Min Temperature 79 °F 73 °F 61 °F (1959)
Degree Days  
Heating Degree Days 0    
Cooling Degree Days 29    
Growing Degree Days 44 (Base 50)    
Moisture  
Dew Point 34 °F    
Average Humidity 12    
Maximum Humidity 23    
Minimum Humidity 6    
Precipitation  
Precipitation 0.00 in 0.01 in 0.42 in (1999)
Month to date precipitation 0.06  
Year to date precipitation 2.10  
Sea Level Pressure  
Sea Level Pressure 29.81 in    
Wind  
Wind Speed 11 mph (West)    
Max Wind Speed 24 mph    
Max Gust Speed 29 mph    
Visibility 10 miles    
Events      
T = Trace of Precipitation, MM = Missing Value Source: NWS Daily Summary

Daily Weather History Graph

Daily Weather History Graph

Search for Another Location

Airport or City:

Trip Planner

Search our weather history database for the weather conditions in past years. The results will help you decide how hot, cold, wet, or windy it might be!

Date:

Astronomy

Jul. 08, 2013 Rise Set
Actual Time 5:40 AM PDT 8:03 PM PDT
Civil Twilight 5:11 AM PDT 8:32 PM PDT
Nautical Twilight 4:35 AM PDT 9:08 PM PDT
Astronomical Twilight 3:56 AM PDT 9:47 PM PDT
Moon 6:10 AM PDT (7/8) 8:13 PM PDT (7/8)
Length of Visible Light 15h 21m
Length of Day
14h 22m
New Moon, 0% of the Moon is Illuminated
Jul 8
New Moon
Jul 15
First Quarter
Jul 22
Full
Jul 29
Last Quarter
Aug 6
New

Hourly Weather History & Observations

Time (PDT) Temp. Dew Point Humidity Pressure Visibility Wind Dir Wind Speed Gust Speed Precip Events Conditions
12:50 AM 90.0 °F 36.0 °F 15% 29.74 in 10.0 mi WSW 15.0 mph - N/A   Clear
1:50 AM 86.0 °F 37.0 °F 18% 29.76 in 10.0 mi NW 8.1 mph - N/A   Clear
2:50 AM 82.0 °F 37.9 °F 21% 29.76 in 10.0 mi WNW 5.8 mph - N/A   Clear
3:50 AM 79.0 °F 37.9 °F 23% 29.78 in 10.0 mi West 6.9 mph - N/A   Clear
4:50 AM 79.0 °F 37.0 °F 22% 29.79 in 10.0 mi West 10.4 mph - N/A   Clear
5:50 AM 80.1 °F 37.0 °F 21% 29.81 in 10.0 mi WSW 9.2 mph - N/A   Clear
6:50 AM 82.9 °F 37.9 °F 20% 29.82 in 10.0 mi West 10.4 mph - N/A   Clear
7:50 AM 84.0 °F 39.0 °F 20% 29.85 in 10.0 mi West 4.6 mph - N/A   Clear
8:50 AM 91.0 °F 39.9 °F 17% 29.85 in 10.0 mi WNW 9.2 mph - N/A   Clear
9:50 AM 96.1 °F 37.9 °F 13% 29.85 in 10.0 mi WNW 10.4 mph - N/A   Clear
10:50 AM 99.0 °F 34.0 °F 10% 29.85 in 10.0 mi NNW 10.4 mph - N/A   Clear
11:50 AM 102.0 °F 33.1 °F 9% 29.83 in 10.0 mi NW 12.7 mph 16.1 mph N/A   Clear
12:50 PM 102.9 °F 32.0 °F 8% 29.81 in 10.0 mi WNW 9.2 mph 16.1 mph N/A   Clear
1:50 PM 105.1 °F 32.0 °F 8% 29.80 in 10.0 mi North 9.2 mph - N/A   Clear
2:50 PM 107.1 °F 30.9 °F 7% 29.78 in 10.0 mi NW 10.4 mph - N/A   Clear
3:24 PM 109.4 °F 30.2 °F 6% 29.86 in 10.0 mi West 21.9 mph 28.8 mph N/A   Clear
3:50 PM 109.0 °F 28.9 °F 6% 29.77 in 10.0 mi Variable 3.5 mph - N/A   Clear
4:50 PM 108.0 °F 30.0 °F 7% 29.75 in 10.0 mi South 11.5 mph - N/A   Clear
5:34 PM 107.6 °F 30.2 °F 7% 29.84 in 10.0 mi WNW 6.9 mph 23.0 mph N/A   Clear
5:50 PM 108.0 °F 30.9 °F 7% 29.74 in 10.0 mi West 12.7 mph 24.2 mph N/A   Clear
6:50 PM 105.1 °F 30.0 °F 7% 29.76 in 10.0 mi West 18.4 mph 28.8 mph N/A   Clear
7:50 PM 100.9 °F 28.9 °F 8% 29.78 in 10.0 mi West 15.0 mph - N/A   Clear
8:50 PM 98.1 °F 32.0 °F 10% 29.81 in 10.0 mi WSW 18.4 mph - N/A   Clear
9:50 PM 95.0 °F 32.0 °F 11% 29.84 in 10.0 mi SW 18.4 mph - N/A   Clear
10:50 PM 93.9 °F 32.0 °F 11% 29.86 in 10.0 mi WSW 19.6 mph - N/A   Clear
11:50 PM 91.9 °F 33.1 °F 12% 29.86 in 10.0 mi SW 24.2 mph - N/A   Clear